Somerville, NJ

5:48 PM EDT on September 25, 2017 (GMT -0400)
Somerset

Weather History for KSMQ - June, 2015

Change the Weather History Date:

Sunday, June 21, 2015

  Actual Average Record
Temperature  
Mean Temperature 80 °F -  
Max Temperature 89 °F 81 °F 96 °F (1949)
Min Temperature 71 °F 58 °F 42 °F (1940)
Cooling Degree Days 14    
Growing Degree Days 30 (Base 50)    
Moisture  
Dew Point 69 °F    
Average Humidity 83    
Maximum Humidity 94    
Minimum Humidity 49    
Precipitation  
Precipitation 0.27 in - - ()
Sea Level Pressure  
Sea Level Pressure 29.73 in    
Wind  
Wind Speed 3 mph (South)    
Max Wind Speed 17 mph    
Max Gust Speed 25 mph    
Visibility 7 miles    
Events Rain    
Averages and records for this station are not official NWS values.
T = Trace of Precipitation, MM = Missing Value Source: NWS Daily Summary

Daily Weather History Graph

Daily Weather History Graph

Search for Another Location

Airport or City:

Trip Planner

Search our weather history database for the weather conditions in past years. The results will help you decide how hot, cold, wet, or windy it might be!

Date:

Astronomy

Jun. 21, 2015 Rise Set
Actual Time 5:27 AM EDT 8:33 PM EDT
Civil Twilight 4:54 AM EDT 9:06 PM EDT
Nautical Twilight 4:11 AM EDT 9:48 PM EDT
Astronomical Twilight 3:21 AM EDT 10:39 PM EDT
Moon 10:29 AM EDT (6/21) 11:47 PM EDT (6/21)
Length of Visible Light 16h 11m
Length of Day
15h 05m
Waxing Crescent, 25% of the Moon is Illuminated
Jun 21
Waxing Crescent
Jun 24
First Quarter
Jul 1
Full
Jul 8
Last Quarter
Jul 15
New

Hourly Weather History & Observations

Time (EDT) Temp. Heat Index Dew Point Humidity Pressure Visibility Wind Dir Wind Speed Gust Speed Precip Events Conditions
1:38 AM 72.0 °F - 69.1 °F 91% 29.80 in 5.0 mi Calm Calm - 0.02 in Rain Light Rain
1:53 AM 72.0 °F - 69.1 °F 91% 29.79 in 4.0 mi Variable 3.5 mph - 0.03 in Rain Light Rain
2:22 AM 72.0 °F - 70.0 °F 93% 29.79 in 2.5 mi Variable 3.5 mph - 0.07 in Rain Rain
2:26 AM 72.0 °F - 70.0 °F 93% 29.78 in 1.8 mi Calm Calm - 0.10 in Rain Heavy Rain
2:34 AM 72.0 °F - 70.0 °F 93% 29.78 in 1.8 mi Calm Calm - 0.15 in Rain Rain
2:41 AM 72.0 °F - 70.0 °F 93% 29.78 in 2.5 mi Calm Calm - 0.16 in Rain Rain
2:53 AM 72.0 °F - 70.0 °F 93% 29.76 in 3.0 mi Calm Calm - 0.18 in Rain Light Rain
3:09 AM 72.0 °F - 70.0 °F 93% 29.76 in 4.0 mi Calm Calm - 0.00 in Rain Light Rain
3:28 AM 72.0 °F - 70.0 °F 93% 29.76 in 1.5 mi SSE 5.8 mph - 0.11 in Rain Rain
3:41 AM 72.0 °F - 70.0 °F 93% 29.74 in 2.0 mi Variable 3.5 mph - 0.19 in Rain Rain
3:50 AM 71.6 °F - 69.8 °F 94% 29.74 in 5.0 mi SSE 5.8 mph - 0.19 in Rain Light Rain
3:53 AM 71.6 °F - 69.8 °F 94% 29.74 in 7.0 mi SSE 5.8 mph - N/A Rain Light Rain
4:01 AM 72.0 °F - 70.0 °F 93% 29.73 in 7.0 mi Variable 3.5 mph - 0.00 in Rain Light Rain
4:41 AM 72.0 °F - 70.0 °F 93% 29.71 in 4.0 mi SE 5.8 mph - 0.03 in Rain Rain
4:44 AM 72.0 °F - 70.0 °F 93% 29.71 in 3.0 mi SE 4.6 mph - 0.04 in Rain Heavy Rain
4:47 AM 71.6 °F - 69.8 °F 94% 29.71 in 2.5 mi SE 4.6 mph - 0.05 in Rain Rain
4:51 AM 71.6 °F - 69.8 °F 94% 29.71 in 3.0 mi SSE 4.6 mph - 0.05 in Rain Light Rain
4:53 AM 72.0 °F - 70.0 °F 93% 29.71 in 4.0 mi SSE 5.8 mph - 0.05 in Rain Light Rain
4:59 AM 72.0 °F - 70.0 °F 93% 29.71 in 8.0 mi SSE 5.8 mph - 0.00 in Rain Light Rain
5:29 AM 72.0 °F - 69.1 °F 91% 29.71 in 8.0 mi South 3.5 mph - 0.01 in   Overcast
5:53 AM 72.0 °F - 70.0 °F 93% 29.70 in 8.0 mi South 3.5 mph - 0.01 in   Overcast
6:01 AM 72.0 °F - 70.0 °F 93% 29.70 in 9.0 mi Calm Calm - N/A   Overcast
6:09 AM 72.0 °F - 70.0 °F 93% 29.71 in 8.0 mi Calm Calm - N/A   Overcast
6:24 AM 72.0 °F - 70.0 °F 93% 29.71 in 7.0 mi South 3.5 mph - N/A   Overcast
6:33 AM 72.0 °F - 70.0 °F 93% 29.71 in 6.0 mi SSE 3.5 mph - N/A   Overcast
6:53 AM 72.0 °F - 70.0 °F 93% 29.70 in 4.0 mi South 3.5 mph - N/A   Overcast
7:00 AM 72.0 °F - 70.0 °F 93% 29.70 in 3.0 mi South 3.5 mph - N/A   Overcast
7:53 AM 73.0 °F - 70.0 °F 90% 29.70 in 6.0 mi SW 4.6 mph - N/A   Overcast
8:20 AM 73.0 °F - 71.1 °F 93% 29.69 in 5.0 mi Calm Calm - N/A   Overcast
8:39 AM 73.9 °F - 71.1 °F 91% 29.70 in 8.0 mi Calm Calm - N/A   Overcast
8:53 AM 73.9 °F - 71.1 °F 91% 29.69 in 10.0 mi Calm Calm - N/A   Overcast
8:58 AM 75.0 °F - 71.1 °F 87% 29.69 in 10.0 mi Calm Calm - N/A   Overcast
9:53 AM 79.0 °F - 71.1 °F 77% 29.70 in 10.0 mi Variable 6.9 mph - N/A   Overcast
10:43 AM 80.1 °F 82.9 °F 69.1 °F 69% 29.71 in 10.0 mi NNW 9.2 mph - N/A   Mostly Cloudy
10:53 AM 80.6 °F 83.2 °F 68.0 °F 65% 29.71 in 10.0 mi NNW 17.3 mph 25.3 mph N/A   Scattered Clouds
11:53 AM 81.0 °F 83.8 °F 68.0 °F 65% 29.73 in 10.0 mi NNW 10.4 mph 21.9 mph N/A   Mostly Cloudy
12:53 PM 82.9 °F 85.4 °F 66.9 °F 58% 29.72 in 10.0 mi NW 10.4 mph 18.4 mph N/A   Partly Cloudy
1:53 PM 86.0 °F 90.4 °F 69.8 °F 58% 29.72 in 10.0 mi West 9.2 mph - N/A   Partly Cloudy
2:53 PM 87.1 °F 91.3 °F 69.1 °F 55% 29.72 in 10.0 mi Variable 6.9 mph - N/A   Mostly Cloudy
3:53 PM 88.0 °F 90.7 °F 66.9 °F 49% 29.71 in 10.0 mi Variable 6.9 mph - N/A   Partly Cloudy
4:53 PM 86.0 °F 88.8 °F 66.9 °F 53% 29.72 in 10.0 mi Variable 5.8 mph - N/A   Mostly Cloudy
5:53 PM 86.0 °F 89.4 °F 68.0 °F 55% 29.73 in 10.0 mi West 9.2 mph - N/A   Partly Cloudy
6:53 PM 84.9 °F 88.2 °F 68.0 °F 57% 29.74 in 10.0 mi Variable 4.6 mph - N/A   Partly Cloudy
7:53 PM 82.9 °F 86.5 °F 69.1 °F 63% 29.75 in 10.0 mi West 3.5 mph - N/A   Clear
8:53 PM 80.1 °F 82.3 °F 66.9 °F 64% 29.76 in 10.0 mi Calm Calm - N/A   Scattered Clouds
9:53 PM 75.0 °F - 69.1 °F 82% 29.79 in 9.0 mi Calm Calm - 0.00 in   Clear
10:53 PM 73.4 °F - 69.8 °F 88% 29.81 in 8.0 mi Calm Calm - N/A   Clear
11:53 PM 72.0 °F - 68.0 °F 87% 29.82 in 7.0 mi Calm Calm - N/A   Clear